DW5479 Weather Reports


Display with metric or nautical units.
time (UTC)temp
F
wind
direction
speed
MPH
gust
MPH
rain 1hr
in
rain 24hr
in
rain mn
in
humidity
%
barometer
mb
20260506113026 73 130 0.0 2.0 0.00 0.00 0.00 87 1006.6
20260506111554 73 145 1.0 6.0 0.00 0.00 0.00 87 1006.4
20260506110103 73 152 3.0 7.0 0.00 0.00 0.00 87 1006.3
20260506104517 73 165 3.0 6.0 0.00 0.00 0.00 87 1006.3
20260506103044 73 159 2.0 4.0 0.00 0.00 0.00 87 1006.3
20260506101600 74 168 1.0 5.0 0.00 0.00 0.00 87 1006.3
20260506100006 74 169 2.0 6.0 0.00 0.00 0.00 87 1006.3
20260506094525 74 160 2.0 6.0 0.00 0.00 0.00 86 1006.2
20260506093047 75 171 3.0 7.0 0.00 0.00 0.00 86 1006.1
20260506091559 75 172 2.0 5.0 0.00 0.00 0.00 86 1006.3
20260506090037 75 179 2.0 6.0 0.00 0.00 0.00 86 1006.4
20260506084623 75 168 4.0 9.0 0.00 0.00 0.00 86 1006.5
20260506083018 75 200 2.0 5.0 0.00 0.00 0.00 86 1006.6
20260506081546 75 159 2.0 6.0 0.00 0.00 0.00 86 1006.4
20260506073039 75 167 3.0 5.0 0.00 0.00 0.00 85 1006.6
20260506071545 75 140 3.0 10.0 0.00 0.00 0.00 85 1006.5
20260506061506 75 154 8.0 15.0 0.00 0.00 0.00 85 1006.7
20260506044653 75 187 4.0 11.0 0.00 0.00 0.00 86 1006.8
20260506043004 75 161 3.0 12.0 0.00 0.00 0.00 86 1006.8
20260506041517 76 153 4.0 8.0 0.00 0.00 0.00 85 1006.7
20260506040035 76 165 7.0 14.0 0.00 0.00 0.00 85 1006.4
20260506034622 76 171 6.0 10.0 0.00 0.00 0.00 85 1006.4
20260506033015 77 126 4.0 8.0 0.00 0.00 0.00 85 1006.4
20260506031540 77 155 2.0 9.0 0.00 0.00 0.00 84 1006.1
20260506030053 77 153 2.0 7.0 0.00 0.00 0.00 84 1005.9
20260506024504 77 183 4.0 7.0 0.00 0.00 0.00 84 1005.6
20260506023028 78 140 3.0 9.0 0.00 0.00 0.00 83 1005.4
20260506021544 78 148 2.0 9.0 0.00 0.00 0.00 83 1004.9
20260506014527 79 214 4.0 10.0 0.00 0.00 0.00 81 1004.7
20260506013052 80 137 6.0 10.0 0.00 0.00 0.00 80 1004.6
20260506011515 80 166 3.0 6.0 0.00 0.00 0.00 79 1004.4
20260506010025 81 168 3.0 9.0 0.00 0.00 0.00 78 1004.0
20260506004602 82 138 4.0 12.0 0.00 0.00 0.00 76 1003.8
20260506003113 83 177 3.0 9.0 0.00 0.00 0.00 74 1003.7
20260506001515 84 161 6.0 12.0 0.00 0.00 0.00 72 1003.7
20260506000033 84 146 2.0 6.0 0.00 0.00 0.00 70 1003.5
20260505234609 84 162 3.0 7.0 0.00 0.00 0.00 70 1003.3
20260505233043 85 139 5.0 10.0 0.00 0.00 0.00 68 1003.3
20260505231603 86 142 4.0 7.0 0.00 0.00 0.00 68 1003.3
20260505230015 86 153 3.0 8.0 0.00 0.00 0.00 68 1003.4
20260505224540 85 185 3.0 7.0 0.00 0.00 0.00 69 1003.4
20260505223002 86 157 3.0 10.0 0.00 0.00 0.00 68 1003.6
20260505221523 86 136 3.0 9.0 0.00 0.00 0.00 69 1003.5
20260505220100 85 155 2.0 8.0 0.00 0.00 0.00 68 1003.8
20260505214521 86 190 4.0 9.0 0.00 0.00 0.00 66 1004.0
20260505213027 87 152 4.0 9.0 0.00 0.00 0.00 64 1004.3
20260505211551 87 150 3.0 8.0 0.00 0.00 0.00 65 1004.5
20260505204514 85 129 3.0 9.0 0.00 0.00 0.00 67 1004.9
20260505203031 84 196 4.0 8.0 0.00 0.00 0.00 68 1005.1
20260505201543 84 164 3.0 6.0 0.00 0.00 0.00 69 1005.4
20260505200101 84 156 3.0 8.0 0.00 0.00 0.00 69 1005.5
20260505194526 84 160 3.0 8.0 0.00 0.00 0.00 68 1005.7
20260505193037 84 145 3.0 9.0 0.00 0.00 0.00 69 1006.1
20260505191554 84 141 3.0 7.0 0.00 0.00 0.00 70 1006.2
20260505190100 83 124 4.0 8.0 0.00 0.00 0.00 71 1006.4
20260505184517 82 141 4.0 10.0 0.00 0.00 0.00 72 1006.7
20260505183032 81 154 4.0 7.0 0.00 0.00 0.00 74 1006.9
20260505181553 81 170 3.0 6.0 0.00 0.00 0.00 75 1007.1
20260505180006 80 155 3.0 9.0 0.00 0.00 0.00 76 1007.1
20260505174531 80 167 4.0 9.0 0.00 0.00 0.00 76 1007.2
20260505173046 79 182 3.0 10.0 0.00 0.00 0.00 79 1007.4
20260505171551 78 147 3.0 8.0 0.00 0.00 0.00 80 1007.3
20260505170024 78 160 3.0 7.0 0.00 0.00 0.00 80 1007.4
20260505164540 77 184 3.0 6.0 0.00 0.00 0.00 82 1007.4
20260505163056 76 165 3.0 9.0 0.00 0.00 0.00 83 1007.6
20260505161515 75 164 3.0 6.0 0.00 0.00 0.00 84 1007.6
20260505153006 73 169 5.0 9.0 0.00 0.00 0.00 86 1007.4
20260505151545 73 183 4.0 9.0 0.00 0.00 0.00 86 1007.5
20260505124528 69 162 4.0 10.0 0.00 0.00 0.00 87 1007.2
20260505123109 69 159 1.0 11.0 0.00 0.00 0.00 87 1007.1
20260505121513 69 161 3.0 11.0 0.00 0.00 0.00 87 1006.8
20260505120029 69 167 4.0 11.0 0.00 0.00 0.00 87 1006.7
20260505114609 69 150 6.0 11.0 0.00 0.00 0.00 87 1006.5